Zurück zum Katalog

STARLINK-4396

AktivKommunikationVLEO
NORAD 53637·PAYLOAD·🇺🇸 United States

Gestartet Aug 28, 2022 von Cape Canaveral Space Force Station

Loading…

Nächste Überflüge (nächste 24 Stunden)

TLE

AktuellSource: CelesTrak SupGP

Epoche: Sep 14, 2026, 20:41 UTC

1 53637C 22104BB  26257.86229167 -.00006980  00000+0 -19970-3 0  2576
2 53637  53.1580  88.3718 0001265  83.0035  72.0581 15.35401097    15

Verfolge STARLINK-4396 in Echtzeit mit AllMySat

Download on the App Store